Погода в Галашках

Россия / Республика Ингушетия     43°04′50″N   44°59′03″E
В апреле 2022 года жителям России запретили посещать сайт meteo.paraplan.net по решению Генеральной прокуратуры. Аудитория сайта уменьшилась в 10 раз. Владельцы сайта не видят смысла в поддержке погодного сервера в таких условиях. Сайт будет закрыт в октябре.
темп.,
°C
ветер,
м/с
пор.,
м/с
влажн.,
%
обл.,
%
осадки,
мм/ч
давл.,
гПа
погр.,
м
26 сентября, пн
пн2600:00+6ююв22830 0.0 102422
03:00+6ююв32720 0.0 102429
06:00+6ююв22750 0.0 102317
09:00+12св22570 0.0 1021568
12:00+16ссв33520 0.0 1019803
15:00+16св33540 0.0 1019750
18:00+10юв11753 0.0 101910
21:00+9ююв327483 0.0 101927
27 сентября, вт
вт2700:00+9ююв32678 0.0 101828
03:00+9ююв32600 0.0 101736
06:00+9ю32572 0.0 101632
09:00+17св11395 0.0 1013316
12:00+20с213831 0.0 1012649
15:00+19ссв114335 0.0 1012551
18:00+14ююв2166100 0.0 101211
21:00+13ююв3254100 0.0 101129
28 сентября, ср
ср2800:00+12ю3250100 0.0 101129
03:00+12ю33525 0.0 101034
06:00+12ю325271 0.0 101034
09:00+20с1036100 0.0 1008221
12:00+24ссз2224100 0.0 1008801
15:00+23с222796 0.0 10081013
18:00+15ю225585 0.0 101113
21:00+13ю325244 0.0 101129
29 сентября, чт
чт2900:00+13ю3249100 0.0 101128
03:00+13ю2252100 0.0 101224
06:00+12ю3259100 0.0 101328
09:00+17сз21535 0.0 1013681
12:00+20с224721 0.0 10131343
15:00+20с2246100 0.0 10141767
18:00+15ю1171100 0.2 101720
21:00+15ююв116689 0.3 101816
30 сентября, пт
пт3000:00+12ю32750 0.0 101834
03:00+12ю22720 0.0 101824
06:00+11ю22745 0.0 101918
09:00+17ссв22570 0.0 1018629
12:00+19ссв335320 0.0 10181136
15:00+20св225279 0.0 10181245
18:00+16юв116889 0.2 102016
21:00+14ююв227798 0.3 102225